Time,TemperatureF,DewpointF,PressureIn,WindDirection,WindDirectionDegrees,WindSpeedMPH,WindSpeedGustMPH,Humidity,HourlyPrecipIn,Conditions,Clouds,dailyrainin,SoftwareType,DateUTC
2013-04-18 00:01:00,65.6,60.5,29.12,SSW,202,1.4,1.4,84,0.00,,,0.00,Rainwise IP-100,2013-04-18 04:01:00,
2013-04-18 00:06:00,65.6,60.5,29.12,SSW,202,0.0,2.6,84,0.00,,,0.00,Rainwise IP-100,2013-04-18 04:06:00,
2013-04-18 00:11:00,65.5,61.0,29.12,SSW,202,2.6,2.6,85,0.00,,,0.00,Rainwise IP-100,2013-04-18 04:11:00,
2013-04-18 00:16:00,65.5,61.0,29.12,SSW,202,0.0,2.8,85,0.00,,,0.00,Rainwise IP-100,2013-04-18 04:16:00,
2013-04-18 00:21:00,65.4,61.0,29.11,SSW,202,0.0,0.0,85,0.00,,,0.00,Rainwise IP-100,2013-04-18 04:21:00,
2013-04-18 00:26:00,65.3,61.0,29.11,SSW,202,0.0,0.0,85,0.00,,,0.00,Rainwise IP-100,2013-04-18 04:26:00,
2013-04-18 00:31:00,65.2,60.5,29.11,SSW,202,0.0,0.0,85,0.00,,,0.00,Rainwise IP-100,2013-04-18 04:31:00,
2013-04-18 00:36:00,65.1,60.5,29.11,SSW,202,0.0,0.0,85,0.00,,,0.00,Rainwise IP-100,2013-04-18 04:36:00,
2013-04-18 00:41:00,64.9,60.5,29.11,SSW,202,0.0,0.0,85,0.00,,,0.00,Rainwise IP-100,2013-04-18 04:41:00,
2013-04-18 00:46:00,64.8,60.5,29.11,SSW,202,0.0,0.0,85,0.00,,,0.00,Rainwise IP-100,2013-04-18 04:46:00,
2013-04-18 00:51:00,64.7,60.0,29.11,SSW,202,0.0,0.0,85,0.00,,,0.00,Rainwise IP-100,2013-04-18 04:51:00,
2013-04-18 00:56:00,64.5,60.0,29.11,SSW,202,0.0,0.0,86,0.00,,,0.00,Rainwise IP-100,2013-04-18 04:56:00,
2013-04-18 01:01:00,64.4,60.0,29.10,SSW,202,0.0,0.0,86,0.00,,,0.00,Rainwise IP-100,2013-04-18 05:01:00,
2013-04-18 01:06:00,64.4,60.0,29.10,SSW,202,0.0,0.0,86,0.00,,,0.00,Rainwise IP-100,2013-04-18 05:06:00,
2013-04-18 01:11:00,64.4,60.0,29.10,SSW,202,0.0,0.0,86,0.00,,,0.00,Rainwise IP-100,2013-04-18 05:11:00,
2013-04-18 01:16:00,64.2,60.0,29.10,SSW,202,0.0,0.0,86,0.00,,,0.00,Rainwise IP-100,2013-04-18 05:16:00,
2013-04-18 01:21:00,64.0,60.0,29.10,SSW,202,0.0,0.0,87,0.00,,,0.00,Rainwise IP-100,2013-04-18 05:21:00,
2013-04-18 01:26:00,63.9,60.5,29.10,SSW,202,0.0,0.0,88,0.00,,,0.00,Rainwise IP-100,2013-04-18 05:26:00,
2013-04-18 01:31:00,63.7,60.0,29.10,SSW,202,0.0,0.0,88,0.00,,,0.00,Rainwise IP-100,2013-04-18 05:31:00,
2013-04-18 01:36:00,63.6,60.0,29.10,SSW,202,0.0,0.0,88,0.00,,,0.00,Rainwise IP-100,2013-04-18 05:36:00,
2013-04-18 01:41:00,63.4,60.0,29.10,SSW,202,0.0,0.0,88,0.00,,,0.00,Rainwise IP-100,2013-04-18 05:41:00,
2013-04-18 01:46:00,63.3,60.0,29.10,SSW,202,0.0,0.0,88,0.00,,,0.00,Rainwise IP-100,2013-04-18 05:46:00,
2013-04-18 01:51:00,63.1,60.0,29.10,SSW,202,0.0,0.0,89,0.00,,,0.00,Rainwise IP-100,2013-04-18 05:51:00,
2013-04-18 01:56:00,62.9,60.0,29.10,SSW,202,0.0,0.0,90,0.00,,,0.00,Rainwise IP-100,2013-04-18 05:56:00,
2013-04-18 02:01:00,62.8,60.0,29.09,SSW,202,0.0,0.0,90,0.00,,,0.00,Rainwise IP-100,2013-04-18 06:01:00,
2013-04-18 02:06:00,62.6,59.5,29.10,SSW,202,0.0,0.0,90,0.00,,,0.00,Rainwise IP-100,2013-04-18 06:06:00,
2013-04-18 02:11:00,62.5,59.5,29.10,SSW,202,0.0,0.0,90,0.00,,,0.00,Rainwise IP-100,2013-04-18 06:11:00,
2013-04-18 02:16:00,62.4,59.5,29.09,SSW,202,0.0,0.0,90,0.00,,,0.00,Rainwise IP-100,2013-04-18 06:16:00,
2013-04-18 02:21:00,62.2,59.0,29.10,SSW,202,0.0,0.0,90,0.00,,,0.00,Rainwise IP-100,2013-04-18 06:21:00,
2013-04-18 02:26:00,62.0,59.5,29.09,SSW,202,0.0,0.0,91,0.00,,,0.00,Rainwise IP-100,2013-04-18 06:26:00,
2013-04-18 02:31:00,61.9,59.5,29.09,SSW,202,0.0,0.0,91,0.00,,,0.00,Rainwise IP-100,2013-04-18 06:31:00,
2013-04-18 02:36:00,61.8,59.5,29.09,SSW,202,0.0,0.0,91,0.00,,,0.00,Rainwise IP-100,2013-04-18 06:36:00,
2013-04-18 02:41:00,61.7,59.0,29.09,SSW,202,0.0,0.0,91,0.00,,,0.00,Rainwise IP-100,2013-04-18 06:41:00,
2013-04-18 02:46:00,61.6,59.5,29.09,SSW,202,0.0,0.0,92,0.00,,,0.00,Rainwise IP-100,2013-04-18 06:46:00,
2013-04-18 02:51:00,61.3,59.5,29.09,SSW,202,0.0,0.0,92,0.00,,,0.00,Rainwise IP-100,2013-04-18 06:51:00,
2013-04-18 02:56:00,61.1,59.0,29.09,SSW,202,0.0,0.0,92,0.00,,,0.00,Rainwise IP-100,2013-04-18 06:56:00,
2013-04-18 03:01:00,61.0,59.0,29.10,SSW,202,0.0,0.0,92,0.00,,,0.00,Rainwise IP-100,2013-04-18 07:01:00,
2013-04-18 03:06:00,60.8,59.0,29.09,SSW,202,0.0,0.0,92,0.00,,,0.00,Rainwise IP-100,2013-04-18 07:06:00,
2013-04-18 03:11:00,60.7,58.0,29.09,SSW,202,0.0,0.0,92,0.00,,,0.00,Rainwise IP-100,2013-04-18 07:11:00,
2013-04-18 03:16:00,60.6,58.0,29.09,SSW,202,0.0,0.0,92,0.00,,,0.00,Rainwise IP-100,2013-04-18 07:16:00,
2013-04-18 03:21:00,60.4,58.0,29.10,SSW,202,0.0,0.0,92,0.00,,,0.00,Rainwise IP-100,2013-04-18 07:21:00,
2013-04-18 03:26:00,60.4,58.0,29.09,SSW,202,0.0,0.0,93,0.00,,,0.00,Rainwise IP-100,2013-04-18 07:26:00,
2013-04-18 03:31:00,60.2,57.5,29.10,SSW,202,0.0,0.0,93,0.00,,,0.00,Rainwise IP-100,2013-04-18 07:31:00,
2013-04-18 03:36:00,60.1,57.5,29.10,SSW,202,0.0,0.0,93,0.00,,,0.00,Rainwise IP-100,2013-04-18 07:36:00,
2013-04-18 03:41:00,60.0,57.5,29.10,SSW,202,0.0,0.0,93,0.00,,,0.00,Rainwise IP-100,2013-04-18 07:41:00,
2013-04-18 03:46:00,59.9,58.0,29.10,SSW,202,0.0,0.0,94,0.00,,,0.00,Rainwise IP-100,2013-04-18 07:46:00,
2013-04-18 03:51:00,59.8,57.5,29.09,SSW,202,0.0,0.0,93,0.00,,,0.00,Rainwise IP-100,2013-04-18 07:51:00,
2013-04-18 03:56:00,59.7,57.0,29.10,SSW,202,0.0,0.0,93,0.00,,,0.00,Rainwise IP-100,2013-04-18 07:56:00,
2013-04-18 04:01:00,59.6,57.0,29.10,SSW,202,0.0,0.0,93,0.00,,,0.00,Rainwise IP-100,2013-04-18 08:01:00,
2013-04-18 04:06:00,59.6,57.5,29.10,SSW,202,0.0,0.0,94,0.00,,,0.00,Rainwise IP-100,2013-04-18 08:06:00,
2013-04-18 04:11:00,59.5,57.5,29.10,SSW,202,0.0,0.0,94,0.00,,,0.00,Rainwise IP-100,2013-04-18 08:11:00,
2013-04-18 04:16:00,59.4,57.5,29.10,SSW,202,0.0,0.0,94,0.00,,,0.00,Rainwise IP-100,2013-04-18 08:16:00,
2013-04-18 04:21:00,59.3,57.5,29.09,SSW,202,0.0,0.0,94,0.00,,,0.00,Rainwise IP-100,2013-04-18 08:21:00,
2013-04-18 04:26:00,59.3,57.5,29.09,SSW,202,0.0,0.0,94,0.00,,,0.00,Rainwise IP-100,2013-04-18 08:26:00,
2013-04-18 04:31:00,59.3,57.5,29.10,SSW,202,0.0,0.0,95,0.00,,,0.00,Rainwise IP-100,2013-04-18 08:31:00,
2013-04-18 04:36:00,59.3,57.5,29.10,SSW,202,0.0,0.0,95,0.00,,,0.00,Rainwise IP-100,2013-04-18 08:36:00,
2013-04-18 04:41:00,59.2,57.5,29.11,SSW,202,0.0,0.0,95,0.00,,,0.00,Rainwise IP-100,2013-04-18 08:41:00,
2013-04-18 04:46:00,59.2,57.5,29.11,SSW,202,0.0,0.0,95,0.00,,,0.00,Rainwise IP-100,2013-04-18 08:46:00,
2013-04-18 04:51:00,59.1,57.5,29.11,SSW,202,0.0,0.0,95,0.00,,,0.00,Rainwise IP-100,2013-04-18 08:51:00,
2013-04-18 04:56:00,59.0,57.5,29.11,SSW,202,0.0,0.0,95,0.00,,,0.00,Rainwise IP-100,2013-04-18 08:56:00,
2013-04-18 05:01:00,59.0,57.5,29.10,SSW,202,0.0,0.0,95,0.00,,,0.00,Rainwise IP-100,2013-04-18 09:01:00,
2013-04-18 05:06:00,59.0,57.5,29.10,SSW,202,0.0,0.0,95,0.00,,,0.00,Rainwise IP-100,2013-04-18 09:06:00,
2013-04-18 05:11:00,59.0,57.5,29.10,SSW,202,0.0,0.0,95,0.00,,,0.00,Rainwise IP-100,2013-04-18 09:11:00,
2013-04-18 05:16:00,59.0,57.5,29.10,SSW,202,0.0,0.0,95,0.00,,,0.00,Rainwise IP-100,2013-04-18 09:16:00,
2013-04-18 05:21:00,59.0,57.5,29.10,SSW,202,0.0,0.0,95,0.00,,,0.00,Rainwise IP-100,2013-04-18 09:21:00,
2013-04-18 05:26:00,59.0,57.5,29.10,SSW,202,0.0,0.0,95,0.00,,,0.00,Rainwise IP-100,2013-04-18 09:26:00,
2013-04-18 05:31:00,59.0,57.5,29.10,SSW,202,0.0,0.0,95,0.00,,,0.00,Rainwise IP-100,2013-04-18 09:31:00,
2013-04-18 05:36:00,59.0,57.5,29.10,SSW,202,0.0,0.0,96,0.00,,,0.00,Rainwise IP-100,2013-04-18 09:36:00,
2013-04-18 05:41:00,59.0,57.5,29.10,SSW,202,0.0,0.0,96,0.00,,,0.00,Rainwise IP-100,2013-04-18 09:41:00,
2013-04-18 05:46:00,59.0,57.5,29.10,SSW,202,0.0,0.0,96,0.00,,,0.00,Rainwise IP-100,2013-04-18 09:46:00,
2013-04-18 05:51:00,59.0,57.5,29.10,SSW,202,0.0,0.0,96,0.00,,,0.00,Rainwise IP-100,2013-04-18 09:51:00,
2013-04-18 05:56:00,59.0,57.5,29.10,SSW,202,0.0,0.0,96,0.00,,,0.00,Rainwise IP-100,2013-04-18 09:56:00,
2013-04-18 06:01:00,59.0,57.5,29.10,SSW,202,0.0,0.0,96,0.00,,,0.00,Rainwise IP-100,2013-04-18 10:01:00,
2013-04-18 06:06:00,59.0,57.5,29.11,SSW,202,0.0,2.1,96,0.00,,,0.00,Rainwise IP-100,2013-04-18 10:06:00,
2013-04-18 06:11:00,59.1,58.0,29.10,SSW,202,0.0,0.0,97,0.00,,,0.00,Rainwise IP-100,2013-04-18 10:11:00,
2013-04-18 06:16:00,59.0,58.0,29.10,SSW,202,0.0,0.0,97,0.00,,,0.00,Rainwise IP-100,2013-04-18 10:16:00,
2013-04-18 06:21:00,59.0,58.0,29.11,SSW,202,0.0,0.0,97,0.00,,,0.00,Rainwise IP-100,2013-04-18 10:21:00,
2013-04-18 06:26:00,59.0,58.0,29.11,SSW,202,0.0,0.0,97,0.00,,,0.00,Rainwise IP-100,2013-04-18 10:26:00,
2013-04-18 06:31:00,59.0,58.0,29.11,SSW,202,0.0,0.0,97,0.00,,,0.00,Rainwise IP-100,2013-04-18 10:31:00,
2013-04-18 06:36:00,59.0,58.0,29.11,SSW,202,0.0,0.0,97,0.00,,,0.00,Rainwise IP-100,2013-04-18 10:36:00,
2013-04-18 06:41:00,59.0,58.0,29.11,SSW,202,0.0,0.0,97,0.00,,,0.00,Rainwise IP-100,2013-04-18 10:41:00,
2013-04-18 06:46:00,59.0,58.0,29.11,SSW,202,0.0,0.0,97,0.00,,,0.00,Rainwise IP-100,2013-04-18 10:46:00,
2013-04-18 06:51:00,59.0,58.0,29.11,SSW,202,0.0,0.0,97,0.00,,,0.00,Rainwise IP-100,2013-04-18 10:51:00,
2013-04-18 06:56:00,58.9,58.0,29.11,SSW,202,0.0,0.0,97,0.00,,,0.00,Rainwise IP-100,2013-04-18 10:56:00,
2013-04-18 07:01:00,58.9,58.0,29.11,SSW,202,0.0,0.0,97,0.00,,,0.00,Rainwise IP-100,2013-04-18 11:01:00,
2013-04-18 07:06:00,58.8,58.0,29.11,SSW,202,0.0,0.0,97,0.00,,,0.00,Rainwise IP-100,2013-04-18 11:06:00,
2013-04-18 07:11:00,58.7,57.5,29.11,SSW,202,0.0,0.0,96,0.00,,,0.00,Rainwise IP-100,2013-04-18 11:11:00,
2013-04-18 07:16:00,58.6,57.5,29.11,SSW,202,0.0,0.0,96,0.00,,,0.00,Rainwise IP-100,2013-04-18 11:16:00,
2013-04-18 07:21:00,58.6,57.5,29.11,SSW,202,0.0,0.0,96,0.00,,,0.00,Rainwise IP-100,2013-04-18 11:21:00,
2013-04-18 07:26:00,58.5,57.5,29.11,SSW,202,0.0,0.0,96,0.00,,,0.00,Rainwise IP-100,2013-04-18 11:26:00,
2013-04-18 07:31:00,58.5,58.0,29.12,SSW,202,0.0,0.0,97,0.00,,,0.00,Rainwise IP-100,2013-04-18 11:31:00,
2013-04-18 07:36:00,58.4,57.5,29.12,SSW,202,0.0,0.0,97,0.00,,,0.00,Rainwise IP-100,2013-04-18 11:36:00,
2013-04-18 07:41:00,58.4,57.5,29.11,SSW,202,0.0,0.0,97,0.00,,,0.00,Rainwise IP-100,2013-04-18 11:41:00,
2013-04-18 07:46:00,58.5,58.0,29.11,SSW,202,0.0,0.0,97,0.00,,,0.00,Rainwise IP-100,2013-04-18 11:46:00,
2013-04-18 07:51:00,58.5,58.0,29.12,SSW,202,0.0,0.0,97,0.00,,,0.00,Rainwise IP-100,2013-04-18 11:51:00,
2013-04-18 07:56:00,58.6,58.0,29.12,SSW,202,0.0,0.0,97,0.00,,,0.00,Rainwise IP-100,2013-04-18 11:56:00,
2013-04-18 08:01:00,58.6,58.0,29.12,SSW,202,0.0,0.0,97,0.00,,,0.00,Rainwise IP-100,2013-04-18 12:01:00,
2013-04-18 08:06:00,58.8,58.0,29.12,SSW,202,0.0,0.0,97,0.00,,,0.00,Rainwise IP-100,2013-04-18 12:06:00,
2013-04-18 08:11:00,59.0,58.0,29.11,SSW,202,0.0,0.0,98,0.00,,,0.00,Rainwise IP-100,2013-04-18 12:11:00,
2013-04-18 08:16:00,59.1,58.0,29.11,SSW,202,0.0,0.0,98,0.00,,,0.00,Rainwise IP-100,2013-04-18 12:16:00,
2013-04-18 08:21:00,59.4,59.0,29.11,SSW,202,0.0,1.2,98,0.00,,,0.00,Rainwise IP-100,2013-04-18 12:21:00,
2013-04-18 08:23:00,59.6,59.0,29.11,SSW,202,0.0,1.2,98,0.00,,,0.00,Rainwise IP-100,2013-04-18 12:23:00,
2013-04-18 08:26:00,59.8,59.5,29.10,SSW,202,0.0,1.2,98,0.00,,,0.00,Rainwise IP-100,2013-04-18 12:26:00,
2013-04-18 08:31:00,60.4,60.0,29.11,SSE,157,0.0,3.7,98,0.00,,,0.00,Rainwise IP-100,2013-04-18 12:31:00,
2013-04-18 08:36:00,61.1,60.5,29.10,South,180,1.9,4.2,98,0.00,,,0.00,Rainwise IP-100,2013-04-18 12:36:00,
2013-04-18 08:41:00,61.8,61.0,29.11,SW,225,0.0,4.4,97,0.00,,,0.00,Rainwise IP-100,2013-04-18 12:41:00,
2013-04-18 08:46:00,62.5,61.5,29.11,SSE,157,0.0,3.5,96,0.00,,,0.00,Rainwise IP-100,2013-04-18 12:46:00,
2013-04-18 08:51:00,63.1,61.5,29.10,South,180,3.3,3.7,94,0.00,,,0.00,Rainwise IP-100,2013-04-18 12:51:00,
2013-04-18 08:56:00,63.6,61.5,29.11,ENE,67,0.0,4.2,93,0.00,,,0.00,Rainwise IP-100,2013-04-18 12:56:00,
2013-04-18 09:01:00,64.1,61.5,29.11,West,270,0.0,4.7,91,0.00,,,0.00,Rainwise IP-100,2013-04-18 13:01:00,
2013-04-18 09:06:00,64.6,61.5,29.10,SSW,202,0.0,2.6,90,0.00,,,0.00,Rainwise IP-100,2013-04-18 13:06:00,
2013-04-18 09:11:00,65.0,61.5,29.10,South,180,1.6,5.8,88,0.00,,,0.00,Rainwise IP-100,2013-04-18 13:11:00,
2013-04-18 09:16:00,65.3,61.5,29.10,ENE,67,0.0,5.8,87,0.00,,,0.00,Rainwise IP-100,2013-04-18 13:16:00,
2013-04-18 09:21:00,65.7,61.0,29.11,SSW,202,0.0,3.5,85,0.00,,,0.00,Rainwise IP-100,2013-04-18 13:21:00,
2013-04-18 09:26:00,66.1,60.5,29.11,South,180,1.6,7.7,83,0.00,,,0.00,Rainwise IP-100,2013-04-18 13:26:00,
2013-04-18 09:31:00,66.5,60.5,29.11,South,180,3.7,7.7,81,0.00,,,0.00,Rainwise IP-100,2013-04-18 13:31:00,
2013-04-18 09:36:00,66.9,60.5,29.11,South,180,2.3,6.3,79,0.00,,,0.00,Rainwise IP-100,2013-04-18 13:36:00,
2013-04-18 09:41:00,67.2,60.0,29.11,ESE,112,0.0,5.4,77,0.00,,,0.00,Rainwise IP-100,2013-04-18 13:41:00,
2013-04-18 09:46:00,67.5,60.0,29.11,NNE,22,0.0,6.3,76,0.00,,,0.00,Rainwise IP-100,2013-04-18 13:46:00,
2013-04-18 09:51:00,67.8,59.5,29.11,South,180,5.1,7.5,74,0.00,,,0.00,Rainwise IP-100,2013-04-18 13:51:00,
2013-04-18 09:56:00,68.0,59.0,29.11,East,90,0.0,6.3,73,0.00,,,0.00,Rainwise IP-100,2013-04-18 13:56:00,
2013-04-18 10:01:00,68.3,59.0,29.12,NE,45,0.0,4.9,72,0.00,,,0.00,Rainwise IP-100,2013-04-18 14:01:00,
2013-04-18 10:06:00,68.6,58.0,29.12,NE,45,0.0,4.9,70,0.00,,,0.00,Rainwise IP-100,2013-04-18 14:06:00,
2013-04-18 10:11:00,68.9,58.0,29.12,NNE,22,0.0,3.0,69,0.00,,,0.00,Rainwise IP-100,2013-04-18 14:11:00,
2013-04-18 10:16:00,69.4,58.0,29.12,NNW,337,0.0,6.5,68,0.00,,,0.00,Rainwise IP-100,2013-04-18 14:16:00,
2013-04-18 10:21:00,69.8,58.0,29.11,South,180,4.7,6.3,67,0.00,,,0.00,Rainwise IP-100,2013-04-18 14:21:00,
2013-04-18 10:26:00,70.1,59.0,29.12,SSE,157,0.0,6.8,67,0.00,,,0.00,Rainwise IP-100,2013-04-18 14:26:00,
2013-04-18 10:31:00,70.4,58.0,29.12,South,180,4.9,8.9,65,0.00,,,0.00,Rainwise IP-100,2013-04-18 14:31:00,
2013-04-18 10:36:00,70.7,57.5,29.11,SSW,202,0.0,5.8,64,0.00,,,0.00,Rainwise IP-100,2013-04-18 14:36:00,
2013-04-18 10:41:00,70.8,57.5,29.11,South,180,4.7,5.1,63,0.00,,,0.00,Rainwise IP-100,2013-04-18 14:41:00,
2013-04-18 10:46:00,71.1,57.5,29.11,South,180,0.0,6.1,63,0.00,,,0.00,Rainwise IP-100,2013-04-18 14:46:00,
2013-04-18 10:51:00,71.4,57.5,29.12,South,180,7.0,10.3,62,0.00,,,0.00,Rainwise IP-100,2013-04-18 14:51:00,
2013-04-18 10:56:00,71.6,57.5,29.12,NNE,22,0.0,11.4,61,0.00,,,0.00,Rainwise IP-100,2013-04-18 14:56:00,
2013-04-18 11:01:00,72.0,57.0,29.12,NNE,22,0.0,10.0,59,0.00,,,0.00,Rainwise IP-100,2013-04-18 15:01:00,
2013-04-18 11:06:00,72.7,57.0,29.12,SSE,157,1.4,3.5,58,0.00,,,0.00,Rainwise IP-100,2013-04-18 15:06:00,
2013-04-18 11:11:00,73.1,56.5,29.11,SW,225,2.6,14.2,56,0.00,,,0.00,Rainwise IP-100,2013-04-18 15:11:00,
2013-04-18 11:16:00,73.0,56.0,29.11,SSW,202,5.8,16.6,55,0.00,,,0.00,Rainwise IP-100,2013-04-18 15:16:00,
2013-04-18 11:21:00,73.1,56.0,29.12,SSE,157,2.8,9.8,55,0.00,,,0.00,Rainwise IP-100,2013-04-18 15:21:00,
2013-04-18 11:26:00,73.5,56.5,29.11,East,90,0.0,11.4,55,0.00,,,0.00,Rainwise IP-100,2013-04-18 15:26:00,
2013-04-18 11:31:00,74.1,57.0,29.11,South,180,5.8,8.4,55,0.00,,,0.00,Rainwise IP-100,2013-04-18 15:31:00,
2013-04-18 11:36:00,74.8,57.5,29.11,ENE,67,0.0,6.1,55,0.00,,,0.00,Rainwise IP-100,2013-04-18 15:36:00,
2013-04-18 11:41:00,75.0,57.5,29.10,SSW,202,4.4,12.1,54,0.00,,,0.00,Rainwise IP-100,2013-04-18 15:41:00,
2013-04-18 11:46:00,75.1,57.5,29.10,South,180,0.0,9.6,54,0.00,,,0.00,Rainwise IP-100,2013-04-18 15:46:00,
2013-04-18 11:51:00,75.4,57.5,29.10,South,180,7.7,10.5,54,0.00,,,0.00,Rainwise IP-100,2013-04-18 15:51:00,
2013-04-18 11:56:00,75.4,57.0,29.10,SSW,202,2.3,12.8,53,0.00,,,0.00,Rainwise IP-100,2013-04-18 15:56:00,
2013-04-18 12:01:00,75.3,57.0,29.10,WSW,247,0.0,11.4,53,0.00,,,0.00,Rainwise IP-100,2013-04-18 16:01:00,
2013-04-18 12:06:00,75.5,57.0,29.09,ENE,67,0.0,6.8,53,0.00,,,0.00,Rainwise IP-100,2013-04-18 16:06:00,
2013-04-18 12:11:00,76.1,57.5,29.09,SSW,202,4.7,12.4,53,0.00,,,0.00,Rainwise IP-100,2013-04-18 16:11:00,
2013-04-18 12:16:00,76.5,58.0,29.09,SSW,202,5.1,6.5,53,0.00,,,0.00,Rainwise IP-100,2013-04-18 16:16:00,
2013-04-18 12:21:00,76.5,57.5,29.09,SSE,157,6.5,13.3,52,0.00,,,0.00,Rainwise IP-100,2013-04-18 16:21:00,
2013-04-18 12:26:00,76.3,56.5,29.09,WNW,292,0.0,13.3,51,0.00,,,0.00,Rainwise IP-100,2013-04-18 16:26:00,
2013-04-18 12:31:00,76.4,57.0,29.09,SSE,157,2.6,10.0,51,0.00,,,0.00,Rainwise IP-100,2013-04-18 16:31:00,
2013-04-18 12:36:00,76.9,57.5,29.08,NNE,22,0.0,8.6,51,0.00,,,0.00,Rainwise IP-100,2013-04-18 16:36:00,
2013-04-18 12:41:00,77.3,57.5,29.08,SSE,157,5.1,8.6,50,0.00,,,0.00,Rainwise IP-100,2013-04-18 16:41:00,
2013-04-18 12:46:00,77.3,57.5,29.08,South,180,1.2,10.0,50,0.00,,,0.00,Rainwise IP-100,2013-04-18 16:46:00,
2013-04-18 12:51:00,77.0,57.0,29.08,SSW,202,1.2,9.1,50,0.00,,,0.00,Rainwise IP-100,2013-04-18 16:51:00,
2013-04-18 12:56:00,77.1,57.0,29.08,SSE,157,1.6,5.1,50,0.00,,,0.00,Rainwise IP-100,2013-04-18 16:56:00,
2013-04-18 13:01:00,77.2,57.5,29.07,South,180,4.4,14.0,51,0.00,,,0.00,Rainwise IP-100,2013-04-18 17:01:00,
2013-04-18 13:06:00,77.1,57.5,29.08,South,180,7.9,12.1,51,0.00,,,0.00,Rainwise IP-100,2013-04-18 17:06:00,
2013-04-18 13:11:00,77.1,57.5,29.07,South,180,4.4,12.1,51,0.00,,,0.00,Rainwise IP-100,2013-04-18 17:11:00,
2013-04-18 13:16:00,77.2,58.0,29.08,SSE,157,4.7,13.8,52,0.00,,,0.00,Rainwise IP-100,2013-04-18 17:16:00,
2013-04-18 13:21:00,77.0,58.0,29.07,NNE,22,4.2,13.8,52,0.00,,,0.00,Rainwise IP-100,2013-04-18 17:21:00,
2013-04-18 13:26:00,76.4,58.0,29.08,SW,225,1.4,10.0,53,0.00,,,0.00,Rainwise IP-100,2013-04-18 17:26:00,
2013-04-18 13:31:00,76.2,58.0,29.07,SSE,157,1.2,7.5,54,0.00,,,0.00,Rainwise IP-100,2013-04-18 17:31:00,
2013-04-18 13:36:00,76.1,59.0,29.07,SSW,202,7.0,7.0,55,0.00,,,0.00,Rainwise IP-100,2013-04-18 17:36:00,
2013-04-18 13:41:00,76.0,59.0,29.07,NE,45,1.6,11.2,55,0.00,,,0.00,Rainwise IP-100,2013-04-18 17:41:00,
2013-04-18 13:46:00,75.9,59.0,29.06,SSW,202,4.7,9.8,55,0.00,,,0.00,Rainwise IP-100,2013-04-18 17:46:00,
2013-04-18 13:51:00,76.3,59.0,29.06,SSE,157,4.0,10.0,55,0.00,,,0.00,Rainwise IP-100,2013-04-18 17:51:00,
2013-04-18 13:56:00,76.5,59.5,29.06,South,180,3.3,9.3,55,0.00,,,0.00,Rainwise IP-100,2013-04-18 17:56:00,
2013-04-18 14:02:00,76.2,59.0,29.07,West,270,1.2,10.5,55,0.00,,,0.00,Rainwise IP-100,2013-04-18 18:02:00,
2013-04-18 14:07:00,76.1,59.0,29.06,ESE,112,0.0,14.5,55,0.00,,,0.00,Rainwise IP-100,2013-04-18 18:07:00,
2013-04-18 14:12:00,76.6,59.0,29.06,SSE,157,0.0,8.4,54,0.00,,,0.00,Rainwise IP-100,2013-04-18 18:12:00,
2013-04-18 14:17:00,76.9,59.0,29.05,NNE,22,3.3,7.5,53,0.00,,,0.00,Rainwise IP-100,2013-04-18 18:17:00,
2013-04-18 14:22:00,76.6,58.0,29.06,NNW,337,0.0,9.8,53,0.00,,,0.00,Rainwise IP-100,2013-04-18 18:22:00,
2013-04-18 14:27:00,76.4,58.0,29.06,SSW,202,3.0,10.7,53,0.00,,,0.00,Rainwise IP-100,2013-04-18 18:27:00,
2013-04-18 14:32:00,76.7,58.0,29.05,South,180,0.0,9.6,53,0.00,,,0.00,Rainwise IP-100,2013-04-18 18:32:00,
2013-04-18 14:37:00,77.2,59.0,29.05,SSW,202,6.8,9.8,53,0.00,,,0.00,Rainwise IP-100,2013-04-18 18:37:00,
2013-04-18 14:42:00,77.5,59.0,29.05,NE,45,1.4,8.6,52,0.00,,,0.00,Rainwise IP-100,2013-04-18 18:42:00,
2013-04-18 14:47:00,77.8,59.0,29.05,ENE,67,0.0,8.6,52,0.00,,,0.00,Rainwise IP-100,2013-04-18 18:47:00,
2013-04-18 14:52:00,77.9,59.0,29.04,WSW,247,0.0,8.6,52,0.00,,,0.00,Rainwise IP-100,2013-04-18 18:52:00,
2013-04-18 14:57:00,78.2,59.5,29.04,SSW,202,4.4,6.3,52,0.00,,,0.00,Rainwise IP-100,2013-04-18 18:57:00,
2013-04-18 15:02:00,78.7,59.0,29.03,ENE,67,0.0,11.9,51,0.00,,,0.00,Rainwise IP-100,2013-04-18 19:02:00,
2013-04-18 15:07:00,79.1,58.0,29.03,SSW,202,1.4,10.5,49,0.00,,,0.00,Rainwise IP-100,2013-04-18 19:07:00,
2013-04-18 15:12:00,79.5,59.0,29.03,SSE,157,7.9,8.2,49,0.00,,,0.00,Rainwise IP-100,2013-04-18 19:12:00,
2013-04-18 15:17:00,80.1,59.0,29.03,SSW,202,1.9,8.9,49,0.00,,,0.00,Rainwise IP-100,2013-04-18 19:17:00,
2013-04-18 15:22:00,80.1,58.0,29.02,WSW,247,0.0,11.2,48,0.00,,,0.00,Rainwise IP-100,2013-04-18 19:22:00,
2013-04-18 15:27:00,79.9,58.0,29.02,South,180,0.0,7.7,48,0.00,,,0.00,Rainwise IP-100,2013-04-18 19:27:00,
2013-04-18 15:32:00,79.8,58.0,29.02,SW,225,1.2,8.6,48,0.00,,,0.00,Rainwise IP-100,2013-04-18 19:32:00,
2013-04-18 15:37:00,79.6,58.0,29.02,South,180,5.6,15.2,48,0.00,,,0.00,Rainwise IP-100,2013-04-18 19:37:00,
2013-04-18 15:42:00,79.2,58.0,29.01,South,180,2.8,10.7,49,0.00,,,0.00,Rainwise IP-100,2013-04-18 19:42:00,
2013-04-18 15:47:00,79.0,58.0,29.00,South,180,5.1,8.9,49,0.00,,,0.00,Rainwise IP-100,2013-04-18 19:47:00,
2013-04-18 15:52:00,79.2,58.0,29.01,SE,135,0.0,11.0,49,0.00,,,0.00,Rainwise IP-100,2013-04-18 19:52:00,
2013-04-18 15:57:00,79.5,58.0,29.00,ESE,112,0.0,11.2,48,0.00,,,0.00,Rainwise IP-100,2013-04-18 19:57:00,
2013-04-18 16:02:00,79.6,58.0,28.99,NE,45,4.2,13.3,48,0.00,,,0.00,Rainwise IP-100,2013-04-18 20:02:00,
2013-04-18 16:07:00,79.5,58.0,29.00,South,180,5.4,15.6,48,0.00,,,0.00,Rainwise IP-100,2013-04-18 20:07:00,
2013-04-18 16:12:00,79.4,57.5,29.00,NW,315,0.0,11.0,48,0.00,,,0.00,Rainwise IP-100,2013-04-18 20:12:00,
2013-04-18 16:17:00,79.2,58.0,28.99,South,180,8.9,10.0,49,0.00,,,0.00,Rainwise IP-100,2013-04-18 20:17:00,
2013-04-18 16:22:00,79.2,58.0,28.99,South,180,3.7,12.8,49,0.00,,,0.00,Rainwise IP-100,2013-04-18 20:22:00,
2013-04-18 16:27:00,79.1,58.0,28.99,WNW,292,2.1,12.8,49,0.00,,,0.00,Rainwise IP-100,2013-04-18 20:27:00,
2013-04-18 16:32:00,78.7,59.0,28.99,SSE,157,7.2,14.0,50,0.00,,,0.00,Rainwise IP-100,2013-04-18 20:32:00,
2013-04-18 16:37:00,78.3,57.5,28.99,South,180,3.0,15.4,49,0.00,,,0.00,Rainwise IP-100,2013-04-18 20:37:00,
2013-04-18 16:42:00,78.2,57.5,28.99,SSE,157,1.2,6.3,49,0.00,,,0.00,Rainwise IP-100,2013-04-18 20:42:00,
2013-04-18 16:47:00,78.3,57.5,28.99,South,180,5.4,11.0,49,0.00,,,0.00,Rainwise IP-100,2013-04-18 20:47:00,
2013-04-18 16:52:00,78.4,57.5,28.98,SSE,157,3.0,11.7,49,0.00,,,0.00,Rainwise IP-100,2013-04-18 20:52:00,
2013-04-18 16:57:00,78.5,58.0,28.98,South,180,4.4,9.8,49,0.00,,,0.00,Rainwise IP-100,2013-04-18 20:57:00,
2013-04-18 17:02:00,78.6,58.0,28.99,SSW,202,8.2,8.2,49,0.00,,,0.00,Rainwise IP-100,2013-04-18 21:02:00,
2013-04-18 17:07:00,78.8,57.5,28.98,SSE,157,11.4,13.8,48,0.00,,,0.00,Rainwise IP-100,2013-04-18 21:07:00,
2013-04-18 17:12:00,79.1,57.0,28.98,NNW,337,1.4,14.2,47,0.00,,,0.00,Rainwise IP-100,2013-04-18 21:12:00,
2013-04-18 17:17:00,79.5,56.5,28.98,SSW,202,6.8,9.1,45,0.00,,,0.00,Rainwise IP-100,2013-04-18 21:17:00,
2013-04-18 17:22:00,79.7,56.5,28.97,South,180,3.3,12.4,45,0.00,,,0.00,Rainwise IP-100,2013-04-18 21:22:00,
2013-04-18 17:27:00,79.7,56.0,28.97,SSW,202,2.8,13.3,44,0.00,,,0.00,Rainwise IP-100,2013-04-18 21:27:00,
2013-04-18 17:32:00,79.7,56.0,28.97,South,180,1.2,10.3,44,0.00,,,0.00,Rainwise IP-100,2013-04-18 21:32:00,
2013-04-18 17:37:00,79.7,55.0,28.97,South,180,11.4,15.6,43,0.00,,,0.00,Rainwise IP-100,2013-04-18 21:37:00,
2013-04-18 17:42:00,79.5,55.0,28.97,South,180,2.1,14.9,43,0.00,,,0.00,Rainwise IP-100,2013-04-18 21:42:00,
2013-04-18 17:47:00,79.3,54.5,28.97,SSW,202,0.0,9.6,43,0.00,,,0.00,Rainwise IP-100,2013-04-18 21:47:00,
2013-04-18 17:52:00,79.1,55.0,28.97,South,180,3.3,8.6,44,0.00,,,0.00,Rainwise IP-100,2013-04-18 21:52:00,
2013-04-18 17:57:00,79.0,56.0,28.97,South,180,4.0,8.4,45,0.00,,,0.00,Rainwise IP-100,2013-04-18 21:57:00,
2013-04-18 18:02:00,79.0,56.5,28.97,SSE,157,3.7,8.4,46,0.00,,,0.00,Rainwise IP-100,2013-04-18 22:02:00,
2013-04-18 18:07:00,78.8,56.5,28.97,South,180,5.6,6.3,46,0.00,,,0.00,Rainwise IP-100,2013-04-18 22:07:00,
2013-04-18 18:12:00,78.7,57.0,28.97,South,180,2.6,7.0,47,0.00,,,0.00,Rainwise IP-100,2013-04-18 22:12:00,
2013-04-18 18:17:00,78.5,57.0,28.97,NNE,22,0.0,6.5,47,0.00,,,0.00,Rainwise IP-100,2013-04-18 22:17:00,
2013-04-18 18:22:00,78.4,56.5,28.97,South,180,0.0,3.5,47,0.00,,,0.00,Rainwise IP-100,2013-04-18 22:22:00,
2013-04-18 18:27:00,78.3,56.5,28.97,South,180,2.6,6.3,47,0.00,,,0.00,Rainwise IP-100,2013-04-18 22:27:00,
2013-04-18 18:32:00,78.2,56.5,28.97,South,180,0.0,6.8,47,0.00,,,0.00,Rainwise IP-100,2013-04-18 22:32:00,
2013-04-18 18:37:00,78.1,56.5,28.96,SSE,157,2.3,5.8,47,0.00,,,0.00,Rainwise IP-100,2013-04-18 22:37:00,
2013-04-18 18:42:00,78.1,57.0,28.96,South,180,3.7,3.7,48,0.00,,,0.00,Rainwise IP-100,2013-04-18 22:42:00,
2013-04-18 18:47:00,78.2,57.0,28.97,South,180,3.3,7.2,48,0.00,,,0.00,Rainwise IP-100,2013-04-18 22:47:00,
2013-04-18 18:52:00,78.2,57.5,28.97,South,180,2.3,7.5,49,0.00,,,0.00,Rainwise IP-100,2013-04-18 22:52:00,
2013-04-18 18:57:00,78.0,57.5,28.97,South,180,3.7,9.1,49,0.00,,,0.00,Rainwise IP-100,2013-04-18 22:57:00,
2013-04-18 19:02:00,77.9,57.5,28.96,SSE,157,2.6,9.1,49,0.00,,,0.00,Rainwise IP-100,2013-04-18 23:02:00,
2013-04-18 19:07:00,77.8,57.5,28.96,South,180,4.0,9.3,50,0.00,,,0.00,Rainwise IP-100,2013-04-18 23:07:00,
2013-04-18 19:12:00,77.7,57.5,28.96,North,0,0.0,5.4,50,0.00,,,0.00,Rainwise IP-100,2013-04-18 23:12:00,
2013-04-18 19:17:00,77.5,58.0,28.96,SW,225,0.0,3.5,51,0.00,,,0.00,Rainwise IP-100,2013-04-18 23:17:00,
2013-04-18 19:22:00,77.3,57.5,28.96,SW,225,1.2,4.7,51,0.00,,,0.00,Rainwise IP-100,2013-04-18 23:22:00,
2013-04-18 19:27:00,77.0,57.5,28.96,NE,45,0.0,7.2,51,0.00,,,0.00,Rainwise IP-100,2013-04-18 23:27:00,
2013-04-18 19:32:00,77.0,57.5,28.96,SSW,202,4.2,6.1,51,0.00,,,0.00,Rainwise IP-100,2013-04-18 23:32:00,
2013-04-18 19:37:00,76.9,58.0,28.96,South,180,1.9,7.2,52,0.00,,,0.00,Rainwise IP-100,2013-04-18 23:37:00,
2013-04-18 19:42:00,76.6,57.5,28.96,SSE,157,2.3,6.8,52,0.00,,,0.00,Rainwise IP-100,2013-04-18 23:42:00,
2013-04-18 19:47:00,76.3,57.5,28.96,NNE,22,1.2,4.7,53,0.00,,,0.00,Rainwise IP-100,2013-04-18 23:47:00,
2013-04-18 19:52:00,76.2,57.5,28.96,South,180,0.0,3.5,53,0.00,,,0.00,Rainwise IP-100,2013-04-18 23:52:00,
2013-04-18 19:57:00,76.0,57.5,28.96,South,180,1.9,4.0,53,0.00,,,0.00,Rainwise IP-100,2013-04-18 23:57:00,
2013-04-18 20:02:00,75.7,57.5,28.95,SSW,202,1.4,6.1,54,0.00,,,0.00,Rainwise IP-100,2013-04-19 00:02:00,
2013-04-18 20:07:00,75.5,57.5,28.96,South,180,3.3,5.6,54,0.00,,,0.00,Rainwise IP-100,2013-04-19 00:07:00,
2013-04-18 20:12:00,75.3,57.5,28.95,South,180,0.0,6.1,54,0.00,,,0.00,Rainwise IP-100,2013-04-19 00:12:00,
2013-04-18 20:17:00,75.1,57.5,28.95,South,180,1.2,4.7,55,0.00,,,0.00,Rainwise IP-100,2013-04-19 00:17:00,
2013-04-18 20:22:00,75.0,57.5,28.96,South,180,2.6,5.6,55,0.00,,,0.00,Rainwise IP-100,2013-04-19 00:22:00,
2013-04-18 20:27:00,74.8,57.5,28.95,South,180,1.4,4.2,55,0.00,,,0.00,Rainwise IP-100,2013-04-19 00:27:00,
2013-04-18 20:32:00,74.5,57.5,28.96,South,180,3.7,4.2,55,0.00,,,0.00,Rainwise IP-100,2013-04-19 00:32:00,
2013-04-18 20:37:00,74.3,57.0,28.96,South,180,2.1,5.1,55,0.00,,,0.00,Rainwise IP-100,2013-04-19 00:37:00,
2013-04-18 20:42:00,74.3,57.0,28.96,South,180,6.3,6.3,55,0.00,,,0.00,Rainwise IP-100,2013-04-19 00:42:00,
2013-04-18 20:47:00,74.2,57.0,28.96,South,180,1.2,6.3,55,0.00,,,0.00,Rainwise IP-100,2013-04-19 00:47:00,
2013-04-18 20:52:00,74.0,57.0,28.96,South,180,3.0,3.7,55,0.00,,,0.00,Rainwise IP-100,2013-04-19 00:52:00,
2013-04-18 20:57:00,73.8,57.0,28.96,South,180,0.0,4.4,56,0.00,,,0.00,Rainwise IP-100,2013-04-19 00:57:00,
2013-04-18 21:02:00,73.6,57.0,28.97,South,180,2.8,3.3,56,0.00,,,0.00,Rainwise IP-100,2013-04-19 01:02:00,
2013-04-18 21:07:00,73.5,57.0,28.97,South,180,0.0,5.4,56,0.00,,,0.00,Rainwise IP-100,2013-04-19 01:07:00,
2013-04-18 21:12:00,73.4,56.5,28.97,South,180,1.6,2.6,56,0.00,,,0.00,Rainwise IP-100,2013-04-19 01:12:00,
2013-04-18 21:17:00,73.2,57.0,28.97,South,180,2.3,4.2,57,0.00,,,0.00,Rainwise IP-100,2013-04-19 01:17:00,
2013-04-18 21:22:00,72.9,57.0,28.96,South,180,0.0,3.3,57,0.00,,,0.00,Rainwise IP-100,2013-04-19 01:22:00,
2013-04-18 21:27:00,72.8,57.0,28.97,SSE,157,0.0,2.8,58,0.00,,,0.00,Rainwise IP-100,2013-04-19 01:27:00,
2013-04-18 21:32:00,72.6,57.5,28.97,South,180,1.2,3.7,59,0.00,,,0.00,Rainwise IP-100,2013-04-19 01:32:00,
2013-04-18 21:37:00,72.4,57.0,28.97,South,180,3.0,3.0,59,0.00,,,0.00,Rainwise IP-100,2013-04-19 01:37:00,
2013-04-18 21:42:00,72.3,57.5,28.97,South,180,2.6,4.9,60,0.00,,,0.00,Rainwise IP-100,2013-04-19 01:42:00,
2013-04-18 21:47:00,72.1,57.0,28.97,South,180,0.0,5.6,60,0.00,,,0.00,Rainwise IP-100,2013-04-19 01:47:00,
2013-04-18 21:52:00,72.1,57.0,28.97,South,180,0.0,2.6,59,0.00,,,0.00,Rainwise IP-100,2013-04-19 01:52:00,
2013-04-18 21:57:00,72.1,57.0,28.97,South,180,2.6,6.1,59,0.00,,,0.00,Rainwise IP-100,2013-04-19 01:57:00,
2013-04-18 22:02:00,72.2,57.0,28.96,South,180,2.3,2.8,59,0.00,,,0.00,Rainwise IP-100,2013-04-19 02:02:00,
2013-04-18 22:07:00,72.1,57.0,28.97,South,180,1.6,4.0,59,0.00,,,0.00,Rainwise IP-100,2013-04-19 02:07:00,
2013-04-18 22:12:00,72.1,57.0,28.97,South,180,2.1,4.0,59,0.00,,,0.00,Rainwise IP-100,2013-04-19 02:12:00,
2013-04-18 22:17:00,72.0,57.0,28.96,South,180,2.3,3.5,60,0.00,,,0.00,Rainwise IP-100,2013-04-19 02:17:00,
2013-04-18 22:22:00,72.0,57.0,28.96,South,180,3.0,6.1,60,0.00,,,0.00,Rainwise IP-100,2013-04-19 02:22:00,
2013-04-18 22:27:00,71.9,57.0,28.96,South,180,2.6,4.9,60,0.00,,,0.00,Rainwise IP-100,2013-04-19 02:27:00,
2013-04-18 22:32:00,71.9,57.0,28.96,South,180,2.3,5.4,60,0.00,,,0.00,Rainwise IP-100,2013-04-19 02:32:00,
2013-04-18 22:37:00,71.9,57.0,28.96,South,180,1.6,4.7,60,0.00,,,0.00,Rainwise IP-100,2013-04-19 02:37:00,
2013-04-18 22:42:00,71.8,57.0,28.96,SSE,157,1.9,7.0,60,0.00,,,0.00,Rainwise IP-100,2013-04-19 02:42:00,
2013-04-18 22:47:00,71.8,57.0,28.96,South,180,4.0,7.0,60,0.00,,,0.00,Rainwise IP-100,2013-04-19 02:47:00,
2013-04-18 22:52:00,71.7,57.5,28.95,North,0,0.0,5.8,61,0.00,,,0.00,Rainwise IP-100,2013-04-19 02:52:00,
2013-04-18 22:57:00,71.6,57.5,28.95,South,180,0.0,5.1,61,0.00,,,0.00,Rainwise IP-100,2013-04-19 02:57:00,
2013-04-18 23:02:00,71.7,57.5,28.95,SSW,202,2.1,8.9,61,0.00,,,0.00,Rainwise IP-100,2013-04-19 03:02:00,
2013-04-18 23:07:00,71.7,57.5,28.95,SSW,202,0.0,4.7,61,0.00,,,0.00,Rainwise IP-100,2013-04-19 03:07:00,
2013-04-18 23:12:00,71.7,57.5,28.95,SSW,202,4.2,4.2,61,0.00,,,0.00,Rainwise IP-100,2013-04-19 03:12:00,
2013-04-18 23:17:00,71.6,57.5,28.95,SSE,157,0.0,6.8,62,0.00,,,0.00,Rainwise IP-100,2013-04-19 03:17:00,
2013-04-18 23:22:00,71.6,57.5,28.95,NE,45,1.9,8.2,62,0.00,,,0.00,Rainwise IP-100,2013-04-19 03:22:00,
2013-04-18 23:27:00,71.7,57.5,28.94,NNW,337,0.0,7.7,62,0.00,,,0.00,Rainwise IP-100,2013-04-19 03:27:00,
2013-04-18 23:32:00,71.7,57.5,28.94,South,180,0.0,3.7,62,0.00,,,0.00,Rainwise IP-100,2013-04-19 03:32:00,
2013-04-18 23:37:00,71.7,57.5,28.94,SSW,202,6.8,6.8,62,0.00,,,0.00,Rainwise IP-100,2013-04-19 03:37:00,
2013-04-18 23:42:00,71.7,57.5,28.94,NW,315,0.0,8.9,62,0.00,,,0.00,Rainwise IP-100,2013-04-19 03:42:00,
2013-04-18 23:47:00,71.7,57.5,28.94,South,180,1.9,5.6,62,0.00,,,0.00,Rainwise IP-100,2013-04-19 03:47:00,
2013-04-18 23:52:00,71.8,57.5,28.93,SSE,157,1.9,7.7,62,0.00,,,0.00,Rainwise IP-100,2013-04-19 03:52:00,
2013-04-18 23:57:00,71.8,57.5,28.93,SSW,202,1.6,7.7,62,0.00,,,0.00,Rainwise IP-100,2013-04-19 03:57:00,